Regional Weather Roundup
Issued by NWS Boston, MA

Home | Current Version | Previous Version | Text Only | Print | Product List | Glossary On
Versions: 1 2 3 4 5 6 7 8 9 10 11 12 13 14 15 16 17 18 19 20 21 22 23 24 25 26 27 28
000
ASUS41 KBOX 031010
RWRBOX

REGIONAL WEATHER ROUNDUP
NATIONAL WEATHER SERVICE TAUNTON MA
600 AM EDT TUE MAY 03 2016

NOTE:  "FAIR" INDICATES FEW OR NO CLOUDS BELOW 12,000 FEET WITH NO
SIGNIFICANT WEATHER AND/OR OBSTRUCTIONS TO VISIBILITY.  THE FOLLOWING
OBSERVATION LOCATIONS DO NOT REPORT PRESENT WEATHER...PROVINCETOWN...
SMITHFIELD...BLOCK ISLAND...KEENE...AND OXFORD.

MAZALL-031100-
EASTERN MASSACHUSETTS

CITY           SKY/WX    TMP DP  RH WIND       PRES   REMARKS
BOSTON         LGT RAIN  46  43  89 CALM      29.94S
BEVERLY        LGT RAIN  44  42  93 CALM      29.93R
LAWRENCE       LGT RAIN  45  43  93 S3        29.95R
BEDFORD        LGT RAIN  45  44  97 CALM      29.92R
BLUE HILL        N/A     43  43 100 CALM      29.91S
NORWOOD        LGT RAIN  46  44  93 NE3       29.92F FOG
MARSHFIELD     CLOUDY    46  46 100 CALM      29.95R FOG
PLYMOUTH       LGT RAIN  45  45 100 E3        29.93F
TAUNTON        LGT RAIN  48  45  89 CALM      29.92S
NEW BEDFORD    LGT RAIN  47  46  97 S5        29.93R
$$

MAZALL-031100-
CAPE COD AND THE ISLANDS

CITY           SKY/WX    TMP DP  RH WIND       PRES   REMARKS
FALMOUTH       CLOUDY    45  45 100 CALM      29.93S
HYANNIS        LGT RAIN  46  43  89 CALM      29.92F
CHATHAM        LGT RAIN  45  44  97 CALM      29.94F
PROVINCETOWN   LGT RAIN  46  43  89 CALM      29.95F
NANTUCKET      LGT RAIN  48  44  86 NE5       29.93S
MARTHAS VNYRD  LGT RAIN  46  45  96 CALM      29.93S
$$

MAZALL-031100-
CENTRAL AND WESTERN MASSACHUSETTS

CITY           SKY/WX    TMP DP  RH WIND       PRES   REMARKS
WORCESTER      LGT RAIN  45  44  97 CALM      29.90S FOG
FITCHBURG      LGT RAIN  47  45  93 CALM      29.92S
ORANGE         LGT RAIN  44  44 100 CALM      29.91S
SPRINGFIELD    LGT RAIN  46  46  98 NE2       29.89S FOG
WESTFIELD      LGT RAIN  47  45  93 CALM      29.90S
NORTH ADAMS    CLOUDY    45  43  93 W5        29.89S
PITTSFIELD     LGT RAIN  45  44  97 W5        29.86F
$$

RIZALL-031100-
RHODE ISLAND

CITY           SKY/WX    TMP DP  RH WIND       PRES   REMARKS
PROVIDENCE     LGT RAIN  48  46  93 SE3       29.93R FOG
NEWPORT        LGT RAIN  48  46  93 E3        29.93R FOG
BLOCK ISLAND   LGT RAIN  48  46  93 E9        29.90F FOG
SMITHFIELD       N/A     46  45  93 CALM      29.92R
WESTERLY       LGT RAIN  50  46  86 NE8       29.91R
$$

CTZALL-031100-
CONNECTICUT

CITY           SKY/WX    TMP DP  RH WIND       PRES   REMARKS
BRADLEY INTL   RAIN      48  46  93 CALM      29.89S FOG
HARTFORD       LGT RAIN  51  49  92 CALM      29.90S FOG
BRIDGEPORT     RAIN      52  50  93 E7        29.88R FOG
DANBURY        LGT RAIN  50  47  89 E5        29.89R FOG
GROTON         LGT RAIN  50  50 100 NE8       29.90R
NEW HAVEN      LGT RAIN  50  49  96 NE5       29.88S FOG
CHESTER        DRIZZLE   48  48 100 VRB5      29.89S
MERIDEN        RAIN      51  48  89 CALM      29.89S FOG
WILLIMANTIC    RAIN      49  46  90 CALM      29.91R FOG
OXFORD           N/A     48  45  87 E5        29.89S
$$

MEZ002-015-021-024-NHZ003-005-008-011-012-014-VTZ005-008-031100-
NORTHERN NEW ENGLAND

CITY           SKY/WX    TMP DP  RH WIND       PRES   REMARKS
PORTLAND ME    CLOUDY    42  39  89 N3        29.93R
BANGOR ME      CLOUDY    44  40  85 N12       29.88S FOG
CONCORD NH     CLOUDY    42  41  96 CALM      29.91R
MANCHESTER NH  LGT RAIN  44  42  93 S6        29.91R FOG
NASHUA NH      LGT RAIN  45  44  97 S3        29.94R
PORTSMOUTH NH  DRIZZLE   44  41  91 CALM      29.91R
JAFFREY NH     LGT RAIN  44  42  93 CALM      29.91R
KEENE NH       CLOUDY    45  43  93 CALM      29.92R
BURLINGTON VT  CLOUDY    44  41  89 N3        29.94S
MT. WASHINGTON CLOUDY    25  23  93 W30         N/A  WCI   8
$$

NYZ052-076-031100-
EASTERN NEW YORK

CITY           SKY/WX    TMP DP  RH WIND       PRES   REMARKS
ALBANY         CLOUDY    46  42  86 N5        29.91S
NEW YORK CITY  RAIN      53  51  93 E5        29.88R FOG
$$

ANZALL-031100-
MARINE OBSERVATIONS

STATION/POSITION TIME  TEMP    WIND        PRES    VSBY  WAVE
                       AIR SEA DIR/SP/G                  HT/PER
                 (UTC) (F)     (DEG/KT/KT) (MB)    (MI)  (FT/S)
BOSTON BUOY      0950   46 47   40/  2/  2 1013.0S         3/ 6
BUZZARDS BAY     0900   47      90/  7/  7 1014.0F
NANTUCKET SOUND  0950   48 49   40/  4/  4 1013.8F         1
MASS BAY-STELLWA 0904   45 46                N/A    1 7/8  3/ 7
ISLE OF SHOALS   0900   44     340/  9/  9 1012.0F
S OF BLOCK IS    NOT AVBL
$$

......................KEY.........................
  SKY/WX - SKY CONDITION/PRESENT WEATHER
  TMP    - TEMPERATURE IN FAHRENHEIT
  DWPT   - DEWPOINT IN FAHRENHEIT
  RH     - RELATIVE HUMIDITY IN PERCENT
  WIND   - DIRECTION AND SPEED IN MPH
  PRES   - MEAN SEA LEVEL PRESSURE IN INCHES OF HG
  WCI    - WIND CHILL INDEX
  VSB    - VISIBILITY IN MILES
  HX     - HEAT INDEX
  TC     - TEMPERATURE IN CELSIUS
  VRB    - VARIABLE WIND DIRECTION
  N/A    - NOT AVAILABLE




USA.gov is the U.S. government's official web portal to all federal, state and local government web resources and services.